Theta_e
343 335 332 335 336 337 337 335 332 330 330 328 328 323 323 324 322 317 312 311 312 311 311 316 322 326 326 322 318 316 315 312 311 311 310 310 310 310 312 315 320 314 310
342 332 332 336 337 337 337 335 332 332 331 330 326 323 324 323 317 311 310 310 310 311 316 321 322 323 323 318 316 316 316 316 320 323 322 315 313 313 313 313 313 312 311
342 335 332 336 337 337 336 335 332 333 332 329 323 324 324 320 312 310 309 309 310 316 321 321 320 322 320 316 317 317 317 321 322 323 323 324 318 315 315 314 314 314 314
340 337 336 335 336 337 336 334 333 334 332 324 323 325 322 315 310 309 309 310 315 320 321 321 321 321 318 317 317 317 317 322 323 324 324 323 322 316 316 316 315 314 316
339 338 337 333 336 336 335 333 335 333 324 323 325 323 318 311 309 310 311 315 319 321 322 321 321 320 317 317 318 317 321 323 323 323 323 324 323 315 316 315 314 312 310
339 338 331 331 335 335 334 335 334 323 324 325 323 317 311 309 309 311 313 317 318 320 321 321 321 318 317 318 318 317 322 323 323 323 324 323 321 314 314 312 310 309 308
339 337 331 330 335 336 336 332 323 325 325 321 316 311 309 309 311 312 315 317 318 318 320 320 319 319 317 318 318 318 318 322 322 322 323 322 313 311 311 309 308 307 306
338 337 328 326 332 332 326 323 325 324 318 314 311 310 309 311 311 315 317 317 317 316 317 318 319 318 318 318 318 318 318 322 322 321 322 323 311 311 310 309 308 307 305
338 337 326 325 325 328 326 327 322 316 313 311 310 309 311 311 311 314 315 316 316 318 317 318 318 318 318 319 319 319 318 320 321 320 320 320 311 316 314 311 310 308 305
334 332 328 327 326 327 327 322 316 313 311 310 309 311 312 311 312 314 316 316 316 316 317 317 318 318 319 319 320 320 319 320 319 318 320 309 313 316 315 312 309 309 304
332 333 327 328 330 329 323 318 315 315 311 309 311 311 311 313 314 315 315 315 317 317 318 319 319 320 320 320 321 319 317 317 316 315 316 306 307 314 314 310 309 309 304
335 332 329 332 331 325 317 317 316 312 311 313 312 311 312 313 316 314 315 317 317 318 320 320 320 320 320 319 318 317 316 312 312 312 310 303 303 305 313 311 310 309 306
334 331 330 331 327 322 318 314 314 315 322 316 318 317 316 320 320 313 314 315 318 320 321 321 320 320 319 319 319 313 310 310 309 308 308 303 301 300 308 310 310 308 307
331 331 330 329 326 320 317 316 312 315 319 314 315 322 323 319 317 315 320 321 321 321 321 320 320 322 322 320 310 307 307 307 307 307 308 303 300 299 310 311 309 307 307
329 326 324 323 320 318 313 312 314 315 313 312 318 321 317 319 326 325 325 324 323 322 321 320 320 318 317 308 308 307 307 306 306 307 310 307 300 298 301 307 308 308 306
325 324 322 320 318 316 316 316 315 312 313 315 317 319 318 325 325 326 325 324 323 322 321 320 317 313 310 309 309 308 306 305 305 303 307 308 305 299 299 301 307 309 307
323 322 322 321 321 317 314 313 312 312 313 312 313 315 322 324 326 325 325 324 323 321 320 320 313 310 309 309 309 308 307 306 305 304 304 306 306 304 302 299 303 304 305
321 322 319 319 317 316 316 314 316 321 315 317 319 321 324 326 325 325 325 323 321 322 318 313 311 310 311 310 310 308 307 306 305 304 304 303 303 301 302 301 299 298 301
322 321 319 317 317 318 320 320 321 320 312 319 320 324 326 325 324 325 324 322 322 319 314 312 312 312 311 310 309 309 309 307 306 304 304 303 303 303 301 301 300 299 299
323 321 320 320 321 320 322 321 319 322 321 323 323 325 326 325 324 324 323 321 320 316 314 312 312 311 312 311 311 310 310 308 306 305 305 304 303 303 302 302 301 301 299
323 323 322 324 322 323 324 324 323 324 322 323 325 325 324 325 324 324 322 321 317 315 313 312 312 312 312 312 311 312 311 309 307 306 305 304 304 303 302 302 302 301 300
322 322 323 326 327 327 325 323 322 324 324 325 325 323 323 323 323 323 322 319 316 315 312 312 312 313 313 311 311 310 310 309 307 306 305 304 304 303 303 302 301 301 300
324 324 325 327 328 328 326 323 324 325 326 325 325 326 323 324 323 322 320 318 315 314 313 312 312 313 313 312 310 309 308 307 305 305 304 303 304 303 303 302 301 301 300
326 327 327 328 329 328 328 325 325 326 327 326 326 325 323 324 322 321 319 317 315 314 313 313 313 313 312 311 309 308 306 305 304 304 303 303 302 302 302 301 301 300 300
327 327 327 328 328 329 329 327 326 326 325 326 326 324 324 323 320 319 317 316 315 313 313 312 311 310 310 310 307 304 304 303 302 302 303 303 303 301 299 299 299 299 299
327 328 328 328 328 329 330 329 329 328 327 326 324 323 323 321 320 317 316 315 314 313 312 311 308 310 311 310 305 303 302 301 301 302 302 301 300 299 298 298 298 299 298
Wind_Speed
22 27 29 27 26 30 31 31 29 27 25 22 20 20 19 17 15 12 12 14 15 17 20 22 22 22 21 19 20 21 20 21 22 21 20 20 20 20 18 16 18 18 17
26 28 29 27 27 31 32 32 30 27 24 22 21 20 19 16 13 12 14 16 18 21 24 23 22 21 20 19 20 21 21 19 23 26 22 20 20 20 18 18 18 19 18
26 30 31 29 28 32 33 33 30 27 25 23 21 20 17 15 14 16 18 20 22 24 23 22 21 20 19 19 20 21 21 25 26 24 18 17 18 18 18 18 17 16 16
27 29 30 31 30 33 35 34 31 28 26 24 22 19 16 15 17 19 21 23 23 23 22 21 20 19 19 19 19 20 21 26 22 18 13 14 16 16 16 15 15 15 15
28 28 30 32 32 35 35 34 31 29 26 24 21 18 16 18 21 22 23 23 23 22 21 20 19 18 18 18 17 19 23 24 20 14 13 13 12 14 12 13 14 14 15
31 32 35 35 35 36 36 33 31 28 25 23 21 19 20 22 23 23 24 24 22 21 20 19 18 17 16 16 15 17 20 18 17 11 12 12 12 13 13 14 15 15 15
30 33 33 34 34 35 35 32 29 27 25 23 23 23 24 23 23 24 24 23 22 21 20 19 18 16 15 14 13 13 15 17 13 10 9 9 13 13 14 15 16 17 17
31 33 37 34 34 34 33 31 29 26 24 24 25 25 25 23 23 22 22 21 20 19 19 18 16 14 13 11 11 11 14 15 9 10 9 5 14 13 13 14 15 16 15
27 36 40 35 33 31 31 29 25 24 23 24 24 24 24 22 22 21 21 19 19 18 17 16 14 12 11 9 9 10 12 13 10 8 6 6 11 11 12 14 15 15 15
13 16 32 31 31 28 26 25 26 26 27 27 27 27 24 24 23 21 20 18 17 16 15 13 11 10 9 7 8 8 12 13 7 7 4 11 10 10 12 15 15 14 14
23 33 39 32 33 35 30 24 23 23 24 25 26 26 25 26 24 22 18 16 15 14 12 11 11 9 7 5 4 7 11 4 5 6 4 10 10 9 13 15 15 15 13
18 28 34 33 42 37 36 29 23 22 23 26 26 24 27 26 21 21 19 15 13 12 12 11 10 8 9 6 6 8 4 5 5 6 9 9 8 8 9 14 14 14 11
24 30 30 31 35 38 35 39 30 27 20 24 22 19 21 21 18 19 18 15 14 14 12 11 10 7 8 5 1 1 5 5 5 4 11 11 9 7 6 12 13 13 11
30 32 32 32 42 44 46 43 39 33 26 24 23 19 23 19 16 17 15 15 15 11 11 10 9 6 3 1 3 4 5 3 4 4 13 10 7 4 2 9 12 13 12
28 33 37 42 43 45 38 39 34 28 29 24 25 23 19 16 16 15 15 13 13 13 10 8 5 4 2 1 3 4 5 7 6 4 11 10 8 3 4 7 10 11 13
30 34 34 35 37 38 30 32 30 24 21 24 19 17 19 17 17 16 19 15 12 10 9 8 6 4 4 1 4 5 5 3 5 2 1 12 9 5 4 6 8 8 11
30 34 32 26 33 41 31 33 30 24 20 22 24 22 19 16 17 15 15 13 12 14 14 10 8 4 3 2 2 4 4 5 3 3 1 1 10 11 11 8 11 12 13
26 19 31 31 23 26 30 31 22 16 20 22 22 20 19 16 14 15 13 14 15 11 10 9 7 6 4 2 1 2 3 3 2 2 1 2 1 3 12 13 12 11 14
21 26 34 33 28 23 21 18 17 19 25 24 21 17 18 17 16 14 14 15 13 12 11 9 8 6 3 1 2 3 5 4 4 4 4 3 5 5 4 11 13 13 13
23 31 28 20 20 20 18 17 17 18 22 20 20 19 17 16 16 15 14 14 13 12 11 10 8 5 4 4 4 7 7 5 6 5 6 7 8 9 8 8 9 11 16
27 29 25 18 17 19 19 18 18 19 21 22 19 18 18 16 18 16 13 14 14 12 12 11 9 6 3 4 4 6 9 13 7 7 8 9 9 10 11 10 11 9 10
30 28 22 18 15 17 14 16 17 17 18 19 16 20 21 19 19 16 15 14 15 13 14 12 9 7 5 5 2 7 8 7 9 9 9 9 11 11 11 12 12 13 13
29 26 23 20 18 18 16 16 16 18 16 19 17 18 21 20 20 19 17 16 16 14 13 13 10 7 5 5 5 3 6 6 13 12 7 10 10 12 12 13 14 14 15
30 27 25 22 21 19 20 17 18 19 16 16 17 22 20 22 22 19 18 17 18 14 13 12 9 7 6 3 7 8 9 10 8 10 10 13 14 13 13 15 15 16 16
30 29 27 24 21 19 20 23 21 20 16 16 19 22 20 20 23 20 19 19 17 15 15 13 15 9 6 13 11 9 11 12 13 16 19 16 15 15 15 16 18 18 17
33 30 28 26 25 23 25 24 24 22 19 22 27 20 23 23 26 25 21 20 18 16 19 20 14 13 16 14 9 10 11 12 14 16 19 18 18 18 17 17 18 18 16
Wind_Direction
162 173 167 165 166 170 171 171 168 163 161 157 155 146 140 137 130 126 123 122 124 124 118 116 116 114 111 103 95 87 84 85 81 75 76 77 75 72 71 69 59 51 48
163 173 167 164 168 170 171 172 169 166 165 162 156 148 144 141 135 132 128 128 126 123 122 120 117 115 110 101 94 90 85 80 82 69 60 68 73 71 67 63 57 50 44
167 167 167 167 169 170 173 174 171 170 168 163 156 152 149 149 144 137 134 129 129 128 122 120 119 118 114 106 97 90 84 82 78 78 68 64 64 61 56 49 45 42 39
159 166 167 169 171 172 174 174 173 172 168 162 158 155 157 154 147 140 136 133 131 129 128 127 126 120 111 105 96 88 81 86 74 71 66 60 55 53 45 41 41 36 27
162 164 173 171 171 173 174 174 174 171 166 162 161 162 164 156 147 142 135 133 136 138 135 130 126 117 112 105 95 84 84 82 75 71 75 68 57 47 38 31 24 21 18
172 167 176 173 172 173 174 175 173 168 165 165 166 165 161 153 146 141 138 139 139 139 138 132 127 119 117 108 97 85 90 76 68 65 60 53 51 40 30 25 20 19 19
172 173 175 172 173 173 174 173 170 169 169 170 167 162 157 150 147 146 143 140 136 137 140 135 130 126 121 110 97 86 86 81 74 66 63 58 33 29 23 19 14 11 13
172 177 176 172 172 173 172 172 171 172 173 169 163 159 151 149 148 144 141 140 138 135 138 136 135 130 127 115 100 84 72 78 55 56 54 33 14 18 16 12 11 7 13
184 167 168 168 172 169 169 168 169 171 167 162 157 149 144 150 147 146 142 143 139 140 140 139 135 133 129 114 96 72 61 88 58 47 52 39 13 13 6 3 2 3 8
163 103 160 163 169 169 166 165 161 162 163 161 156 149 153 151 148 148 145 143 144 142 141 136 134 134 126 109 87 64 63 49 39 48 354 7 19 5 347 351 355 1 9
167 177 167 166 168 164 153 155 153 157 158 154 151 148 154 149 146 151 150 151 149 144 142 135 136 136 122 106 79 54 58 32 39 38 322 4 358 360 334 339 346 353 1
165 164 169 171 170 160 143 146 144 148 152 151 150 154 155 153 154 160 158 155 154 149 146 140 141 119 85 54 19 38 31 43 15 29 313 350 345 335 331 326 333 342 356
176 173 178 173 160 152 152 148 157 151 153 149 140 144 151 155 167 161 152 157 161 154 151 150 126 115 167 134 125 15 34 26 25 6 310 332 329 319 306 307 318 331 347
164 173 181 184 166 157 160 162 156 161 153 151 153 167 164 165 157 165 155 160 154 152 153 162 174 172 182 268 315 351 2 33 4 2 317 328 329 313 282 293 311 321 330
165 162 161 166 161 159 160 155 158 144 148 169 177 178 158 166 162 160 169 163 163 170 168 155 156 154 216 322 12 8 357 353 12 39 304 330 335 323 222 254 286 300 308
157 156 150 154 156 154 166 152 151 152 174 177 175 178 175 182 183 176 175 170 175 156 166 165 163 154 142 21 351 338 332 344 336 35 8 314 347 340 282 262 250 267 288
146 140 153 146 153 148 162 163 155 159 176 183 195 197 186 191 189 188 187 179 161 175 178 190 184 168 148 123 4 348 353 346 342 341 48 18 339 337 325 289 269 273 271
147 158 139 145 145 145 144 147 159 196 191 192 198 197 199 198 205 195 175 170 181 182 178 169 161 163 163 179 302 334 303 292 273 325 318 153 285 315 317 310 308 283 279
156 150 140 147 158 161 177 184 189 197 202 205 201 200 202 207 201 178 180 184 185 182 175 168 167 168 170 193 278 284 281 260 278 279 281 279 313 320 294 308 313 327 313
151 149 147 154 163 178 175 183 188 199 200 201 201 204 206 198 197 183 189 204 189 176 181 177 181 174 184 209 280 276 275 267 254 267 272 283 292 295 308 282 303 310 314
168 171 173 186 181 190 187 190 194 201 201 202 206 208 207 200 201 189 193 203 184 186 187 204 210 202 216 272 322 306 299 268 261 266 261 272 275 283 281 290 302 294 300
178 184 193 200 200 189 194 196 195 200 208 206 206 215 222 219 210 196 198 196 195 194 204 205 197 205 216 246 317 314 305 289 249 265 266 264 276 281 284 280 284 293 297
194 197 202 206 205 196 194 194 194 201 206 208 209 216 219 217 201 199 205 201 199 200 204 211 211 208 248 269 280 297 317 296 310 292 271 265 263 282 275 275 286 283 289
199 202 203 208 211 211 194 200 199 209 204 211 213 222 223 221 213 210 213 202 202 199 205 207 210 208 251 288 279 295 273 279 291 294 283 287 287 276 282 282 282 280 283
205 207 209 210 212 215 220 199 206 210 216 213 211 230 221 214 223 209 212 209 209 202 207 202 213 235 253 295 277 269 271 273 273 275 288 290 281 283 285 285 277 276 278
209 211 212 212 215 214 222 207 212 211 213 213 227 231 214 232 227 214 211 215 210 209 208 221 234 261 293 282 261 264 266 271 275 279 283 283 284 285 287 284 280 275 278